CW7500 Weather Reports


Display with metric or nautical units.
time (UTC)temp
F
wind
direction
speed
MPH
gust
MPH
rain 1hr
in
rain 24hr
in
rain mn
in
humidity
%
barometer
mb
20260504190016 71 242 4.0 14.0 0.00 0.00 0.00 25 1005.8
20260504185516 71 183 5.0 12.0 0.00 0.00 0.00 25 1005.9
20260504185016 71 227 5.0 9.0 0.00 0.00 0.00 25 1005.9
20260504184516 71 150 3.0 9.0 0.00 0.00 0.00 24 1005.9
20260504184016 70 255 5.0 12.0 0.00 0.00 0.00 24 1006.0
20260504183516 70 238 4.0 9.0 0.00 0.00 0.00 23 1006.0
20260504183016 71 174 3.0 9.0 0.00 0.00 0.00 23 1006.2
20260504182015 71 182 4.0 9.0 0.00 0.00 0.00 24 1006.2
20260504181516 70 213 4.0 9.0 0.00 0.00 0.00 23 1006.1
20260504181016 70 239 4.0 15.0 0.00 0.00 0.00 25 1006.3
20260504180515 70 266 4.0 9.0 0.00 0.00 0.00 23 1006.3
20260504180016 70 136 4.0 10.0 0.00 0.00 0.00 23 1006.2
20260504175515 71 294 4.0 9.0 0.00 0.00 0.00 23 1006.6
20260504175016 70 243 5.0 7.0 0.00 0.00 0.00 24 1006.4
20260504174016 70 230 5.0 9.0 0.00 0.00 0.00 25 1006.6
20260504173516 69 261 4.0 8.0 0.00 0.00 0.00 24 1006.5
20260504173016 69 228 5.0 14.0 0.00 0.00 0.00 24 1006.4
20260504172515 69 221 5.0 10.0 0.00 0.00 0.00 28 1006.6
20260504172016 69 231 5.0 10.0 0.00 0.00 0.00 25 1006.6
20260504171515 69 216 4.0 9.0 0.00 0.00 0.00 26 1006.6
20260504171015 69 244 5.0 9.0 0.00 0.00 0.00 24 1006.6
20260504170516 69 229 5.0 14.0 0.00 0.00 0.00 25 1006.6
20260504151015 66 303 5.0 12.0 0.00 0.00 0.00 27 1007.8
20260504150516 66 271 3.0 6.0 0.00 0.00 0.00 29 1008.0
20260504140515 63 235 4.0 7.0 0.00 0.00 0.00 34 1008.5
20260504130515 59 219 2.0 6.0 0.00 0.00 0.00 39 1009.2
20260504110515 48 213 2.0 5.0 0.00 0.00 0.00 52 1009.5
20260504100515 45 244 2.0 2.0 0.00 0.00 0.00 53 1009.4
20260504081515 43 222 1.0 1.0 0.00 0.00 0.00 63 1009.1
20260504081014 43 227 0.0 0.0 0.00 0.00 0.00 56 1009.2
20260504080514 43 243 0.0 0.0 0.00 0.00 0.00 56 1009.1
20260504050514 44 212 1.0 2.0 0.00 0.00 0.00 50 1008.9
20260504050014 43 229 2.0 2.0 0.00 0.00 0.00 50 1009.1
20260504045514 43 250 2.0 3.0 0.00 0.00 0.00 50 1009.1
20260504045014 43 240 2.0 3.0 0.00 0.00 0.00 52 1009.1
20260504044513 43 242 2.0 2.0 0.00 0.00 0.00 52 1009.0
20260504044013 42 240 2.0 3.0 0.00 0.00 0.00 51 1009.0
20260504043514 42 244 2.0 3.0 0.00 0.00 0.00 52 1009.0
20260504043013 42 246 2.0 3.0 0.00 0.00 0.00 52 1009.0
20260504042514 42 238 2.0 2.0 0.00 0.00 0.00 52 1009.0
20260504042013 42 247 2.0 2.0 0.00 0.00 0.00 53 1008.9
20260504041514 42 245 2.0 3.0 0.00 0.00 0.00 52 1008.9
20260504041014 42 249 2.0 3.0 0.00 0.00 0.00 52 1008.9
20260504040013 42 238 2.0 3.0 0.00 0.00 0.00 52 1008.6
20260504035514 41 252 2.0 3.0 0.00 0.00 0.00 53 1008.6
20260504035014 42 257 2.0 3.0 0.00 0.00 0.00 53 1008.6
20260504034513 42 258 2.0 3.0 0.00 0.00 0.00 53 1008.7
20260504034014 41 242 2.0 3.0 0.00 0.00 0.00 53 1008.7
20260504033014 41 238 2.0 3.0 0.00 0.00 0.00 54 1008.5
20260504032513 41 242 2.0 3.0 0.00 0.00 0.00 54 1008.5
20260504032013 41 247 2.0 3.0 0.00 0.00 0.00 54 1008.4
20260504031514 41 250 3.0 5.0 0.00 0.00 0.00 54 1008.4
20260504031013 41 255 1.0 3.0 0.00 0.00 0.00 55 1008.4
20260504025014 40 233 0.0 1.0 0.00 0.00 0.00 56 1008.4
20260504024513 40 239 0.0 0.0 0.00 0.00 0.00 56 1008.4
20260504024014 40 249 0.0 0.0 0.00 0.00 0.00 56 1008.4
20260504023513 41 244 0.0 1.0 0.00 0.00 0.00 56 1008.4
20260504023013 41 243 0.0 1.0 0.00 0.00 0.00 55 1008.4
20260504022513 41 248 0.0 1.0 0.00 0.00 0.00 56 1008.4
20260504022014 41 243 0.0 1.0 0.00 0.00 0.00 54 1008.2
20260504021513 41 248 0.0 1.0 0.00 0.00 0.00 57 1008.2
20260504021013 42 242 0.0 1.0 0.00 0.00 0.00 55 1008.2
20260504020513 42 244 0.0 1.0 0.00 0.00 0.00 54 1008.2
20260504020014 42 249 0.0 1.0 0.00 0.00 0.00 52 1008.2
20260504014514 42 243 0.0 0.0 0.00 0.00 0.00 52 1008.2
20260504014013 42 240 0.0 0.0 0.00 0.00 0.00 52 1008.1
20260504013513 42 229 0.0 0.0 0.00 0.00 0.00 53 1008.1
20260504013014 43 209 0.0 0.0 0.00 0.00 0.00 53 1008.1
20260504012513 43 249 0.0 0.0 0.00 0.00 0.00 50 1008.1
20260504012013 43 249 0.0 0.0 0.00 0.00 0.00 49 1008.0
20260504011513 43 249 0.0 0.0 0.00 0.00 0.00 50 1008.0
20260504011014 43 258 0.0 0.0 0.00 0.00 0.00 48 1007.8
20260504010513 43 255 0.0 0.0 0.00 0.00 0.00 47 1007.7
20260504010013 44 235 0.0 1.0 0.00 0.00 0.00 49 1007.7
20260504005013 45 249 0.0 0.0 0.00 0.00 0.00 46 1007.6
20260504004513 45 295 0.0 0.0 0.00 0.00 0.00 45 1007.6
20260504004013 45 218 0.0 0.0 0.00 0.00 0.00 46 1007.6
20260504003513 46 230 0.0 0.0 0.00 0.00 0.00 44 1007.5
20260504003013 46 247 0.0 1.0 0.00 0.00 0.00 42 1007.5
20260504002513 47 266 1.0 1.0 0.00 0.00 0.00 41 1007.3
20260504002013 47 273 1.0 2.0 0.00 0.00 0.00 41 1007.3
20260504001513 48 257 2.0 3.0 0.00 0.00 0.00 39 1007.3
20260504000513 48 264 2.0 3.0 0.00 0.00 0.00 39 1007.1
20260504000013 48 254 1.0 3.0 0.00 0.00 0.00 41 1007.1
20260503235513 48 238 2.0 2.0 0.00 0.00 0.00 40 1007.1
20260503235012 49 255 1.0 3.0 0.00 0.00 0.00 38 1007.1
20260503234513 49 254 2.0 3.0 0.00 0.00 0.00 37 1007.0
20260503233513 50 305 2.0 5.0 0.00 0.00 0.00 35 1007.0
20260503233012 50 218 2.0 5.0 0.00 0.00 0.00 35 1006.9
20260503232513 50 255 2.0 6.0 0.00 0.00 0.00 35 1006.7
20260503232013 50 300 2.0 7.0 0.00 0.00 0.00 34 1006.7
20260503231513 50 313 2.0 5.0 0.00 0.00 0.00 35 1006.6
20260503231013 50 257 2.0 7.0 0.00 0.00 0.00 34 1006.6
20260503230512 50 329 2.0 7.0 0.00 0.00 0.00 34 1006.6
20260503230013 50 251 3.0 15.0 0.00 0.00 0.00 34 1006.6
20260503225513 50 290 1.0 5.0 0.00 0.00 0.00 34 1006.6
20260503224513 51 248 5.0 10.0 0.00 0.00 0.00 33 1006.5
20260503224012 51 258 5.0 8.0 0.00 0.00 0.00 33 1006.2
20260503222513 52 287 3.0 7.0 0.00 0.00 0.00 34 1006.2
20260503222013 51 105 2.0 10.0 0.00 0.00 0.00 35 1006.1
20260503221513 51 268 2.0 7.0 0.00 0.00 0.00 33 1006.0
20260503220512 51 290 3.0 9.0 0.00 0.02 0.00 34 1006.0
20260503220013 51 326 2.0 9.0 0.00 0.02 0.00 34 1006.0
20260503215513 51 262 2.0 9.0 0.00 0.02 0.00 34 1005.9
20260503215012 51 345 4.0 12.0 0.00 0.02 0.00 35 1005.8
20260503214513 51 258 4.0 10.0 0.00 0.02 0.00 34 1005.7
20260503214012 52 259 3.0 7.0 0.00 0.02 0.00 33 1005.5
20260503213513 52 268 2.0 12.0 0.00 0.02 0.00 32 1005.6
20260503213012 52 266 3.0 6.0 0.00 0.02 0.00 34 1005.4
20260503212012 51 321 3.0 10.0 0.00 0.02 0.00 34 1005.3
20260503211513 51 281 5.0 10.0 0.00 0.02 0.00 35 1005.1
20260503211012 51 269 6.0 10.0 0.00 0.02 0.00 35 1005.0
20260503210512 51 255 5.0 7.0 0.00 0.02 0.00 35 1004.9
20260503205512 51 238 3.0 8.0 0.00 0.02 0.00 35 1004.9
20260503205013 52 238 5.0 12.0 0.00 0.02 0.00 35 1004.8
20260503204512 52 256 3.0 9.0 0.00 0.02 0.00 34 1004.8
20260503204013 52 260 5.0 10.0 0.00 0.02 0.00 34 1004.6
20260503203012 53 272 2.0 7.0 0.00 0.02 0.00 32 1004.5
20260503202512 53 292 3.0 10.0 0.00 0.02 0.00 33 1004.5
20260503202012 52 191 3.0 10.0 0.00 0.02 0.00 35 1004.5
20260503201012 53 284 4.0 9.0 0.00 0.02 0.00 34 1004.5
20260503200513 52 266 5.0 9.0 0.00 0.02 0.00 35 1004.6
20260503200012 52 261 5.0 9.0 0.00 0.02 0.00 37 1004.5
20260503195513 52 267 4.0 8.0 0.00 0.02 0.00 35 1004.5
20260503195012 52 326 6.0 12.0 0.00 0.02 0.00 37 1004.4
20260503194512 52 235 2.0 10.0 0.00 0.02 0.00 37 1004.4
20260503194012 52 271 3.0 9.0 0.00 0.02 0.00 36 1004.6
20260503193513 52 246 4.0 13.0 0.00 0.02 0.00 35 1004.4
20260503193012 52 220 5.0 8.0 0.00 0.02 0.00 36 1004.5
20260503191512 51 152 3.0 7.0 0.00 0.02 0.00 38 1004.6
20260503191013 52 266 5.0 9.0 0.00 0.02 0.00 37 1004.7